This is the latest recevied weather packets stored in our database for station/object N7ZAP. If no packets are shown the sender has not sent any weather packets the latest 10 day(s).
| Time | Temp. | Humidity | Pressure | Rain* | Wind** | Luminosity | Snow |
|---|---|---|---|---|---|---|---|
| 1777309897 | 18.33° C | 23% | 1015.9 hPa | 0 mm | - | - | - |
| 1777309595 | 18.89° C | 22% | 1015.9 hPa | 0 mm | - | - | - |
| 1777309292 | 18.33° C | 24% | 1015.9 hPa | 0 mm | - | - | - |
| 1777308990 | 18.33° C | 23% | 1016 hPa | 0 mm | - | - | - |
| 1777308686 | 17.78° C | 25% | 1016.2 hPa | 0 mm | - | - | - |
| 1777308382 | 18.33° C | 24% | 1016.1 hPa | 0 mm | - | - | - |
| 1777308077 | 17.78° C | 26% | 1016.2 hPa | 0 mm | - | - | - |
| 1777307775 | 17.78° C | 24% | 1016.1 hPa | 0 mm | - | - | - |
| 1777307472 | 17.78° C | 25% | 1016.5 hPa | 0 mm | - | - | - |
| 1777307169 | 17.78° C | 25% | 1016.3 hPa | 0 mm | - | - | - |
| 1777306866 | 17.22° C | 26% | 1016.3 hPa | 0 mm | - | - | - |
| 1777306564 | 16.67° C | 26% | 1016.3 hPa | 0 mm | - | - | - |
| 1777306259 | 16.67° C | 27% | 1016.3 hPa | 0 mm | - | - | - |
| 1777305954 | 16.67° C | 27% | 1016.5 hPa | 0 mm | - | - | - |
| 1777305651 | 16.11° C | 28% | 1016.5 hPa | 0 mm | - | - | - |
| 1777305347 | 16.11° C | 28% | 1016.2 hPa | 0 mm | - | - | - |
| 1777305047 | 15.56° C | 29% | 1016.3 hPa | 0 mm | - | - | - |
| 1777304747 | 15.56° C | 29% | 1016.6 hPa | 0 mm | - | - | - |
| 1777304444 | 15.56° C | 28% | 1016.3 hPa | 0 mm | - | - | - |
| 1777304142 | 15° C | 29% | 1016.3 hPa | 0 mm | - | - | - |
| 1777303839 | 15° C | 29% | 1016.2 hPa | 0 mm | - | - | - |
| 1777303536 | 14.44° C | 30% | 1016.3 hPa | 0 mm | - | - | - |
| 1777303233 | 14.44° C | 30% | 1016.5 hPa | 0 mm | - | - | - |
| 1777302932 | 14.44° C | 32% | 1016.5 hPa | 0 mm | - | - | - |
| 1777302627 | 15° C | 30% | 1016.5 hPa | 0 mm | - | - | - |
* Rain latest hour (hover to see other rain measurements)
** Current wind speed in m/s (hover to see current wind gust speed)